Probability
0 0 0 0 0 0 0 0 0 0 0 0 0 0 0 0 0 0 0 0 0 0 0 0 0 0 0 0 0 0 0 0 0 1 2 2 2 2
0 0 0 0 0 0 0 0 0 0 0 0 0 0 0 0 0 0 0 0 0 0 0 0 0 0 0 0 0 0 0 0 0 0 1 1 1 1
0 0 0 0 0 0 0 0 0 0 0 0 0 0 0 0 0 0 0 0 0 0 0 0 0 0 0 0 0 0 0 0 0 0 0 0 0 0
0 0 0 0 0 0 0 0 0 0 0 0 0 0 0 0 0 0 0 0 0 0 0 0 0 0 0 0 0 0 0 0 0 0 0 0 0 0
0 0 0 0 0 0 0 0 0 0 0 0 0 0 0 0 0 0 0 0 0 0 0 0 0 0 0 0 0 0 0 0 0 0 0 0 0 0
0 0 0 0 0 0 0 0 0 0 0 0 0 0 0 0 0 0 0 0 0 0 0 0 0 0 0 0 0 0 0 0 0 0 0 0 0 0
0 0 0 0 0 0 0 0 0 0 0 0 0 0 0 0 0 0 0 0 0 0 0 0 0 0 0 0 0 0 0 0 0 0 0 0 0 0
0 0 0 0 0 0 0 0 0 0 0 0 0 0 0 0 0 0 0 0 0 0 0 0 0 0 0 0 0 0 0 0 0 0 0 0 0 0
0 0 0 0 0 0 0 0 0 0 0 0 0 0 0 0 0 0 0 0 0 0 0 0 0 0 0 0 0 0 0 0 0 0 0 0 0 0
0 0 0 0 0 0 0 0 0 0 0 0 0 0 0 0 0 0 0 0 0 0 0 0 0 0 0 0 0 0 0 0 0 0 0 0 0 0
0 0 0 0 0 0 0 0 0 0 0 0 0 0 0 0 0 0 0 0 0 0 0 0 0 0 0 0 0 0 0 0 0 0 0 0 0 0
0 0 0 0 0 0 0 0 0 0 0 0 0 0 0 0 0 0 0 0 0 0 0 0 0 0 0 0 0 0 0 0 0 0 0 0 0 0
0 0 0 0 0 0 0 0 0 0 0 0 0 0 0 0 0 0 0 0 0 0 0 0 0 0 0 0 0 0 0 0 0 0 0 0 0 0
0 0 0 0 0 0 0 0 0 0 0 0 0 0 0 0 0 0 0 0 0 0 0 0 0 0 0 0 0 0 0 0 0 0 0 0 0 0
0 0 0 0 0 0 0 0 0 0 0 0 0 0 0 0 0 0 0 0 0 0 0 0 0 0 0 0 0 0 0 0 0 0 0 0 0 0
0 0 0 0 0 0 0 0 0 0 0 0 0 0 0 0 0 0 0 0 0 0 0 0 0 0 0 0 0 0 0 0 0 0 0 0 0 0
0 0 0 0 0 0 0 0 0 0 0 0 0 0 0 0 0 0 0 0 0 0 0 0 0 0 0 0 0 0 0 0 0 0 0 0 0 0
0 0 0 0 0 0 0 0 0 0 0 0 0 0 0 0 0 0 0 0 0 0 0 0 0 0 0 0 0 0 0 0 0 0 0 0 0 0
0 0 0 0 0 0 0 0 0 0 0 0 0 0 0 0 0 0 0 0 0 0 0 0 0 0 0 0 0 0 0 0 0 0 0 0 0 0
0 0 0 0 0 0 0 0 0 0 0 0 0 0 0 0 0 0 0 0 0 0 0 0 0 0 0 0 0 0 0 0 0 0 0 0 0 0
0 0 0 0 0 0 0 0 0 0 0 0 0 0 0 0 0 0 0 0 0 0 0 0 0 0 0 0 0 0 0 0 0 0 0 0 0 0
0 0 0 0 0 0 0 0 0 0 0 0 0 0 0 0 0 0 0 0 0 0 0 0 0 0 0 0 0 0 0 0 0 0 0 0 0 0
0 0 0 0 0 0 0 0 0 0 0 0 0 0 0 0 0 0 0 0 0 0 0 0 0 0 0 0 0 0 0 0 0 0 0 0 0 0
Wind_Speed
2 2 2 1 1 2 2 2 3 1 2 3 3 3 3 2 3 2 3 5 7 8 9 9 10 10 9 10 10 11 11 12 13 14 15 16 17 19
1 2 1 0 1 2 2 1 2 3 2 3 3 3 3 3 3 3 4 7 8 9 9 10 11 11 11 11 10 11 11 12 12 12 13 14 15 16
1 1 1 1 0 1 1 1 1 2 2 3 3 3 3 4 5 4 4 4 4 9 9 10 10 10 11 11 11 11 11 12 12 13 13 14 14 15
2 1 1 1 1 1 0 0 0 1 2 3 3 3 4 4 4 4 4 3 3 7 8 9 9 9 9 10 11 11 12 12 12 12 13 13 14 15
3 3 3 2 2 2 2 2 2 1 1 2 3 2 3 3 3 4 4 3 4 5 6 6 7 8 9 10 11 12 12 12 12 13 13 13 13 14
3 4 4 4 5 4 3 3 3 2 1 1 3 3 3 3 2 2 4 3 4 4 5 5 6 8 9 10 11 12 12 13 13 14 14 14 14 14
3 4 4 6 8 6 4 4 4 3 2 2 3 3 3 3 3 2 3 4 4 3 3 4 4 4 6 8 10 12 13 13 14 14 15 15 15 15
4 4 5 6 8 10 10 9 8 6 5 4 4 4 6 5 4 3 3 3 4 3 2 5 3 5 5 5 9 13 13 13 14 14 15 15 15 15
5 5 5 5 6 5 7 9 9 12 12 7 6 8 7 6 4 5 5 5 6 5 2 5 4 6 6 7 12 13 13 13 13 13 14 15 15 15
6 6 6 7 7 6 6 6 7 8 9 9 9 10 9 8 7 7 6 5 6 5 4 5 5 6 7 6 11 14 13 12 12 12 13 14 15 15
7 7 7 7 10 10 6 7 8 8 10 13 14 14 15 15 10 4 4 4 6 6 4 4 5 5 5 6 8 12 12 12 12 12 13 13 14 13
5 6 9 10 11 10 6 6 8 9 7 7 8 10 11 12 13 9 8 6 6 6 5 5 4 3 4 4 4 5 5 9 12 13 13 13 12 7
5 5 6 9 11 11 9 7 11 10 6 6 6 7 6 7 7 8 8 8 8 8 6 5 4 4 4 5 4 4 5 5 5 6 10 12 12 9
6 6 6 9 9 9 7 10 13 10 5 5 6 7 7 8 8 8 9 10 11 12 9 6 5 5 5 6 6 4 4 5 5 6 6 8 10 13
7 9 9 10 9 8 11 13 10 5 5 5 7 9 8 8 7 6 7 7 8 10 10 9 9 7 6 7 7 6 5 5 5 6 6 6 5 5
7 7 9 10 9 9 9 8 6 6 6 7 7 8 6 5 6 6 6 5 5 7 8 9 10 9 8 9 8 8 6 5 4 5 5 6 5 5
3 2 2 3 4 4 5 6 5 4 5 6 6 7 7 6 7 5 5 5 5 7 7 5 6 7 9 7 7 9 8 7 7 6 5 7 7 7
4 3 4 4 5 6 6 6 5 5 6 6 6 6 6 7 7 6 5 5 7 7 7 6 4 3 3 6 10 9 8 8 7 6 5 6 8 7
4 4 5 5 5 5 5 5 6 6 5 5 6 6 6 6 6 6 6 6 7 7 7 5 4 4 6 8 7 9 8 7 6 5 6 7 8 7
4 5 5 5 5 5 5 5 5 5 4 5 5 6 6 5 5 6 6 7 7 7 6 5 5 6 7 8 6 5 9 8 6 7 6 5 6 8
4 5 5 5 5 5 5 5 5 5 5 4 5 6 5 5 6 6 6 9 8 6 7 7 7 9 5 3 5 6 5 9 10 7 5 5 5 5
4 4 4 4 4 4 4 4 4 5 5 5 5 5 5 5 6 7 6 6 6 6 8 7 6 4 3 5 8 8 7 6 7 11 12 10 5 5
4 4 4 4 4 4 4 4 5 5 5 5 5 5 5 5 5 5 6 6 6 7 7 6 5 4 5 6 7 7 8 7 5 4 6 9 13 14
Wind_Direction
95 82 76 42 59 73 103 132 135 106 308 305 321 326 327 303 289 280 279 277 274 272 272 271 270 269 268 263 258 255 255 254 252 249 245 241 238 236
127 95 69 39 41 51 72 91 127 150 225 276 276 288 312 314 290 273 271 280 279 278 273 272 269 267 266 265 262 255 252 251 251 249 247 246 244 241
148 143 196 186 88 23 55 76 101 139 203 280 277 289 305 309 311 303 287 279 282 285 285 282 276 271 267 265 264 261 257 253 251 249 247 244 244 244
199 174 216 192 188 237 201 246 228 188 186 265 292 301 297 296 296 300 300 299 290 295 294 292 288 282 277 273 268 264 260 256 252 249 249 248 247 247
198 197 213 192 219 232 226 229 241 234 188 221 274 283 291 304 320 314 311 310 305 304 306 307 305 299 289 281 276 270 263 258 254 250 248 247 248 249
213 212 215 208 217 224 227 228 225 237 240 243 270 283 285 295 315 308 314 311 305 307 309 304 308 309 299 289 281 274 265 258 254 251 249 248 247 247
238 237 235 232 226 220 217 215 211 219 230 243 262 277 280 288 278 266 277 291 289 275 293 296 303 301 298 292 284 274 269 262 255 251 249 247 246 245
235 251 258 253 246 241 239 227 210 208 217 223 239 248 259 253 253 254 260 286 292 276 273 285 285 283 280 273 273 273 271 269 263 255 249 246 244 243
226 239 253 251 249 245 253 254 243 235 222 214 230 242 248 243 239 255 250 244 250 254 257 279 277 276 275 278 275 275 275 272 268 262 256 250 246 243
231 231 238 254 254 241 246 257 256 251 239 230 230 242 243 242 228 236 248 257 264 260 211 258 272 268 276 273 274 272 272 271 269 267 263 256 249 246
245 241 236 246 257 251 241 251 264 267 259 243 235 242 247 249 244 240 248 248 270 272 212 219 258 268 271 268 269 269 270 271 273 270 266 259 252 247
255 252 245 246 256 256 235 237 254 264 267 273 259 258 255 258 253 230 228 236 248 265 239 206 244 254 284 269 263 267 273 275 274 271 267 262 255 242
246 252 250 250 252 253 241 230 242 253 264 261 266 269 265 258 253 238 224 223 233 245 237 199 231 227 232 270 275 260 256 263 270 269 266 261 252 228
239 245 247 253 255 259 252 248 256 264 259 260 263 266 264 261 256 247 239 232 232 242 247 215 224 232 241 260 270 267 256 251 252 260 262 263 255 239
240 246 253 260 265 266 262 263 265 252 241 249 256 260 257 257 258 259 258 249 247 247 250 235 232 239 230 245 257 259 268 264 246 249 255 249 244 231
246 259 266 267 264 262 269 272 255 238 233 244 254 260 265 264 261 256 258 257 260 267 254 240 235 232 241 244 248 258 254 252 255 247 251 256 249 233
216 249 262 266 270 270 269 268 263 256 247 247 253 263 267 266 265 257 249 250 251 264 274 264 241 234 233 236 248 254 256 256 254 254 251 260 257 242
181 230 247 249 253 260 266 273 270 262 256 253 253 255 258 260 266 264 249 248 256 261 263 265 260 269 275 256 231 246 252 254 255 247 237 252 266 256
195 236 245 251 254 256 257 260 267 267 261 255 256 258 257 259 260 263 262 258 258 259 260 255 241 231 259 274 264 224 233 250 252 251 243 238 253 258
217 238 249 252 253 256 258 261 267 274 270 266 266 264 260 258 260 261 259 257 261 264 266 257 240 231 238 257 266 258 228 232 244 253 255 250 252 259
230 238 245 250 252 254 257 261 264 268 269 269 271 271 267 264 265 265 265 266 263 262 263 262 254 246 242 245 264 267 256 232 227 236 247 253 261 262
244 244 248 249 251 255 259 262 267 268 270 268 271 272 270 265 265 269 268 267 264 259 261 266 265 253 224 236 256 266 271 270 250 242 239 232 229 235
241 242 246 252 254 255 258 260 264 267 266 268 275 276 275 274 270 266 269 267 267 269 270 273 270 251 244 243 253 260 266 271 272 270 266 251 241 245